When you browse on this site, cookies collect data to enhance your experience and personalize the content and advertising you see.
Visit our Privacy Policy to learn more. By continuing to use the site, you agree to this use of cookies and data.
  • In Portugal
  • List of Countries
  • For 7 days
  • Water Temperature
  • Satellite Maps
  • Weather Map
  • Weather Widgets
  • user-avatar
    Login

    Hourly Weather Rudno

    Today, 18 January, Friday

    Time Temperature Precipitation Wind Pressure Humidity
    00:00 +1°C° 0.3 mm 5 mps 743 mmHg 84%
    01:00 0°C° 0 mm 5 mps 744 mmHg 85%
    02:00 0°C° 0.4 mm 5 mps 745 mmHg 85%
    03:00 -1°C° 0.4 mm 6 mps 746 mmHg 86%
    04:00 -2°C° 0.4 mm 6 mps 746 mmHg 86%
    05:00 -2°C° 0.1 mm 6 mps 747 mmHg 83%
    06:00 -2°C° 0.1 mm 5 mps 749 mmHg 81%
    07:00 -4°C° 0 mm 5 mps 750 mmHg 77%
    08:00 -2°C° 0 mm 5 mps 751 mmHg 75%
    09:00 -2°C° 0 mm 5 mps 752 mmHg 74%
    10:00 -2°C° 0 mm 5 mps 753 mmHg 72%
    11:00 -2°C° 0 mm 5 mps 753 mmHg 70%
    12:00 -1°C° 0 mm 5 mps 754 mmHg 68%
    13:00 -1°C° 0 mm 6 mps 754 mmHg 67%
    14:00 -1°C° 0.1 mm 5 mps 755 mmHg 70%
    15:00 -1°C° 0.1 mm 4 mps 755 mmHg 74%
    16:00 -2°C° 0.1 mm 4 mps 755 mmHg 78%
    17:00 -2°C° 0 mm 4 mps 755 mmHg 80%
    18:00 -3°C° 0 mm 4 mps 756 mmHg 81%
    19:00 -3°C° 0 mm 4 mps 756 mmHg 83%
    20:00 -3°C° 0 mm 4 mps 756 mmHg 85%
    21:00 -3°C° 0 mm 4 mps 756 mmHg 87%
    22:00 -2°C° 0 mm 3 mps 757 mmHg 89%
    23:00 -2°C° 0 mm 3 mps 757 mmHg 88%

    Tomorrow, 19 January, Saturday

    Time Temperature Precipitation Wind Pressure Humidity
    00:00 -2°C° 0 mm 3 mps 757 mmHg 88%
    01:00 -2°C° 0 mm 3 mps 757 mmHg 87%
    02:00 -2°C° 0 mm 3 mps 758 mmHg 86%
    03:00 -2°C° 0 mm 3 mps 758 mmHg 84%
    04:00 -2°C° 0 mm 3 mps 758 mmHg 82%
    05:00 -2°C° 0 mm 3 mps 758 mmHg 84%
    06:00 -2°C° 0 mm 3 mps 758 mmHg 85%
    07:00 -2°C° 0 mm 3 mps 758 mmHg 87%
    08:00 -2°C° 0 mm 3 mps 758 mmHg 86%
    09:00 -1°C° 0 mm 3 mps 759 mmHg 86%
    10:00 -1°C° 0 mm 3 mps 759 mmHg 85%
    11:00 -1°C° 0 mm 3 mps 759 mmHg 83%
    12:00 0°C° 0 mm 3 mps 759 mmHg 80%
    13:00 +1°C° 0 mm 3 mps 759 mmHg 78%
    14:00 0°C° 0 mm 3 mps 759 mmHg 80%
    15:00 -1°C° 0 mm 2 mps 759 mmHg 83%
    16:00 -1°C° 0 mm 2 mps 758 mmHg 86%
    17:00 -2°C° 0 mm 2 mps 759 mmHg 87%
    18:00 -2°C° 0 mm 2 mps 759 mmHg 89%
    19:00 -2°C° 0 mm 2 mps 759 mmHg 90%
    20:00 -2°C° 0 mm 2 mps 759 mmHg 89%
    21:00 -2°C° 0 mm 2 mps 758 mmHg 89%
    22:00 -3°C° 0 mm 2 mps 758 mmHg 88%
    23:00 -3°C° 0 mm 2 mps 758 mmHg 88%

    Day after tomorrow, 20 January, Sunday

    Time Temperature Precipitation Wind Pressure Humidity
    00:00 -3°C° 0 mm 2 mps 758 mmHg 88%
    01:00 -3°C° 0 mm 2 mps 758 mmHg 87%
    02:00 -3°C° 0 mm 2 mps 758 mmHg 88%
    03:00 -3°C° 0 mm 2 mps 758 mmHg 88%
    04:00 -3°C° 0 mm 2 mps 758 mmHg 88%
    05:00 -3°C° 0 mm 2 mps 758 mmHg 89%
    06:00 -1°C° 0 mm 1 mps 758 mmHg 89%
    07:00 -1°C° 0 mm 1 mps 758 mmHg 89%
    08:00 -1°C° 0 mm 1 mps 758 mmHg 88%
    09:00 -1°C° 0 mm 1 mps 758 mmHg 86%
    10:00 -2°C° 0 mm 2 mps 758 mmHg 84%
    11:00 -1°C° 0 mm 2 mps 758 mmHg 83%
    12:00 -1°C° 0 mm 2 mps 758 mmHg 81%
    13:00 +1°C° 0 mm 2 mps 758 mmHg 80%
    14:00 +1°C° 0 mm 2 mps 758 mmHg 83%
    15:00 -1°C° 0 mm 2 mps 758 mmHg 87%
    16:00 -1°C° 0 mm 2 mps 758 mmHg 90%
    17:00 -1°C° 0 mm 2 mps 758 mmHg 91%
    18:00 -2°C° 0 mm 2 mps 759 mmHg 92%
    19:00 -2°C° 0 mm 2 mps 759 mmHg 93%
    20:00 -2°C° 0 mm 2 mps 759 mmHg 92%
    21:00 -2°C° 0 mm 2 mps 760 mmHg 92%
    22:00 -2°C° 0 mm 2 mps 760 mmHg 92%
    23:00 -2°C° 0 mm 2 mps 760 mmHg 92%

    21 January, Monday

    Time Temperature Precipitation Wind Pressure Humidity
    00:00 -2°C° 0 mm 2 mps 760 mmHg 92%
    01:00 -2°C° 0 mm 2 mps 761 mmHg 92%
    02:00 -2°C° 0 mm 2 mps 761 mmHg 92%
    03:00 -2°C° 0 mm 2 mps 761 mmHg 93%
    04:00 -2°C° 0 mm 2 mps 761 mmHg 93%
    05:00 -2°C° 0 mm 3 mps 761 mmHg 92%
    06:00 -2°C° 0 mm 3 mps 761 mmHg 91%
    07:00 -2°C° 0 mm 3 mps 761 mmHg 90%
    08:00 -2°C° 0 mm 3 mps 761 mmHg 88%
    09:00 -2°C° 0 mm 3 mps 761 mmHg 86%
    10:00 -2°C° 0 mm 3 mps 761 mmHg 84%
    11:00 -1°C° 0 mm 3 mps 761 mmHg 80%
    12:00 -2°C° 0 mm 4 mps 761 mmHg 76%
    13:00 -2°C° 0 mm 4 mps 760 mmHg 72%
    14:00 -2°C° 0 mm 4 mps 760 mmHg 72%
    15:00 -2°C° 0 mm 4 mps 760 mmHg 73%
    16:00 -2°C° 0 mm 4 mps 759 mmHg 73%
    17:00 -3°C° 0 mm 4 mps 759 mmHg 71%
    18:00 -4°C° 0 mm 5 mps 759 mmHg 70%
    19:00 -4°C° 0 mm 5 mps 758 mmHg 68%
    20:00 -4°C° 0 mm 5 mps 758 mmHg 69%
    21:00 -4°C° 0 mm 5 mps 758 mmHg 70%
    22:00 -4°C° 0 mm 5 mps 757 mmHg 72%
    23:00 -3°C° 0 mm 4 mps 757 mmHg 73%

    22 January, Tuesday

    Time Temperature Precipitation Wind Pressure Humidity
    00:00 -3°C° 0 mm 4 mps 757 mmHg 75%
    01:00 -4°C° 0 mm 4 mps 756 mmHg 77%
    02:00 -4°C° 0 mm 4 mps 756 mmHg 77%
    03:00 -4°C° 0 mm 4 mps 755 mmHg 78%
    04:00 -4°C° 0 mm 4 mps 755 mmHg 79%
    05:00 -4°C° 0 mm 4 mps 754 mmHg 75%
    06:00 -4°C° 0 mm 4 mps 753 mmHg 70%
    07:00 -3°C° 0 mm 4 mps 753 mmHg 66%
    08:00 -3°C° 0 mm 4 mps 752 mmHg 65%
    09:00 -4°C° 0 mm 5 mps 752 mmHg 64%
    10:00 -4°C° 0 mm 5 mps 751 mmHg 63%
    11:00 -4°C° 0 mm 5 mps 750 mmHg 61%
    12:00 -3°C° 0 mm 6 mps 750 mmHg 59%
    13:00 -3°C° 0 mm 6 mps 749 mmHg 57%
    14:00 -3°C° 0 mm 6 mps 748 mmHg 58%
    15:00 -3°C° 0 mm 6 mps 747 mmHg 59%
    16:00 -3°C° 0 mm 6 mps 746 mmHg 60%
    17:00 -3°C° 0 mm 6 mps 745 mmHg 59%
    18:00 -4°C° 0 mm 6 mps 745 mmHg 59%
    19:00 -4°C° 0 mm 6 mps 744 mmHg 58%
    20:00 -4°C° 0 mm 6 mps 744 mmHg 59%
    21:00 -4°C° 0 mm 6 mps 744 mmHg 59%
    22:00 -4°C° 0 mm 5 mps 743 mmHg 60%
    23:00 -4°C° 0 mm 5 mps 743 mmHg 62%

    23 January, Wednesday

    Time Temperature Precipitation Wind Pressure Humidity
    00:00 -4°C° 0 mm 5 mps 742 mmHg 64%
    01:00 -4°C° 0 mm 5 mps 742 mmHg 65%
    02:00 -4°C° 0 mm 5 mps 742 mmHg 68%
    03:00 -4°C° 0 mm 5 mps 741 mmHg 70%
    04:00 -5°C° 0 mm 5 mps 741 mmHg 73%
    05:00 -4°C° 0 mm 4 mps 741 mmHg 75%
    06:00 -4°C° 0 mm 4 mps 741 mmHg 77%
    07:00 -4°C° 0 mm 4 mps 741 mmHg 79%
    08:00 -4°C° 0 mm 4 mps 741 mmHg 78%
    09:00 -4°C° 0 mm 4 mps 741 mmHg 76%
    10:00 -3°C° 0 mm 4 mps 741 mmHg 74%
    11:00 -2°C° 0 mm 3 mps 740 mmHg 73%
    12:00 -2°C° 0 mm 3 mps 740 mmHg 71%
    13:00 -1°C° 0 mm 3 mps 740 mmHg 69%
    14:00 -2°C° 0 mm 3 mps 740 mmHg 72%
    15:00 -2°C° 0 mm 3 mps 740 mmHg 75%
    16:00 -2°C° 0 mm 3 mps 740 mmHg 79%
    17:00 -2°C° 0.1 mm 3 mps 740 mmHg 78%
    18:00 -4°C° 0.1 mm 3 mps 740 mmHg 78%
    19:00 -4°C° 0.1 mm 3 mps 740 mmHg 78%
    20:00 -4°C° 0 mm 3 mps 740 mmHg 80%
    21:00 -4°C° 0 mm 3 mps 740 mmHg 81%
    22:00 -3°C° 0 mm 2 mps 740 mmHg 83%
    23:00 -3°C° 0.1 mm 2 mps 740 mmHg 85%
    Show more